Regional Weather Roundup
Issued by NWS

Home | Current Version | Previous Version | Graphics & Text | Print | Product List | Glossary Off
Versions: 1 2 3 4 5 6 7 8 9 10 11 12 13 14 15 16 17 18 19 20 21 22 23 24 25 26 27 28 29 30 31 32 33 34 35 36 37 38 39 40 41 42 43 44 45 46 47 48 49 50

000
ASUS43 KTOP 271108
RWRKS

WEATHER ROUNDUP FOR KANSAS
NATIONAL WEATHER SERVICE GOODLAND KS
600 AM CDT FRI MAR 27 2015

NOTE:  "FAIR" INDICATES FEW OR NO CLOUDS BELOW 12,000 FEET WITH NO
SIGNIFICANT WEATHER AND/OR OBSTRUCTIONS TO VISIBILITY.

KSZ001>006-013>018-027>032-041>047-271200-
NORTHWEST KANSAS

CITY           SKY/WX    TMP DP  RH WIND       PRES   REMARKS
GOODLAND       MOCLDY    31  27  85 SE5       30.21R
HAYS           CLOUDY    34  25  69 N14       30.26R WCI  24
HILL CITY      LGT SNOW  33  30  88 NE8       30.25F FOG
RUSSELL        CLOUDY    34  29  82 N14       30.24R WCI  25
$$

KSZ061>065-074>080-084>089-271200-
SOUTHWEST KANSAS

CITY           SKY/WX    TMP DP  RH WIND       PRES   REMARKS
DODGE CITY     CLOUDY    36  31  82 NE14      30.19S WCI  27
ELKHART          N/A     42  28  57 NW1         N/A
GARDEN CITY    CLOUDY    35  32  88 NE15      30.18R WCI  25
GREAT BEND     CLOUDY    34  27  75 N18       30.25R WCI  23
LIBERAL        CLOUDY    45  28  53 NE7       30.17F
PRATT          CLOUDY    36  32  87 NE15      30.22R WCI  26
$$

KSZ066>073-081>083-090>101-271200-
SOUTHEAST KANSAS

CITY           SKY/WX    TMP DP  RH WIND       PRES   REMARKS
CHANUTE        CLOUDY    39  36  89 N15       30.16R WCI  31
COFFEYVILLE    MOCLDY    39  36  89 N8        30.15R
HUTCHINSON     CLOUDY    37  31  78 N13G22    30.22R WCI  29
MEDICINE LODGE   N/A     39  34  82 N14       30.21R WCI  31
NEWTON         CLOUDY    36  28  75 N17       30.22R WCI  25
PARSONS        CLOUDY    41  37  86 N9        30.16R
WICHITA INTL   CLOUDY    39  34  82 N16       30.20R WCI  30
WICHITA JABRA  CLOUDY    37  33  85 N17       30.19R WCI  27
WICHITA MCCONL CLOUDY    38  34  87 N13G21    30.20R WCI  30
WINFIELD       CLOUDY    40  36  86 N10       30.19R WCI  33
$$

KSZ007>012-019>026-033>040-048>060-102>105-271200-
NORTHEAST KANSAS

CITY           SKY/WX    TMP DP  RH WIND       PRES   REMARKS
CONCORDIA      MOCLDY    31  29  92 N8        30.26R
EMPORIA        CLOUDY    35  32  88 N13       30.19R WCI  26
LAWRENCE       CLOUDY    34  31  88 N9        30.21R
MANHATTAN      CLOUDY    35  30  82 N10       30.24R WCI  27
MARYSVILLE     MOCLDY    32  30  93 NE7       30.25R
OLATHE IND     MOCLDY    33  30  88 N12       30.19R WCI  24
OLATHE EXE     PTCLDY    35  29  78 N12       30.17R WCI  27
SALINA         CLOUDY    34  29  82 N8        30.26R
TOPEKA BILLARD CLEAR     33  30  88 N8        30.23R
TOPEKA FORBES  MOCLDY    35  31  85 N9        30.21R
$$



USA.gov is the U.S. government's official web portal to all federal, state and local government web resources and services.